SCP
0 0 0 0 0 0 0 -0 0 0 0 0 0 0 0 0 0 0 0 0 0 0 0 0 0 0 0 0 0 0 0 0 0 0 0 0 0 0 0 0 0 0 0 0 0 0 0 0 0
0 0 0 0 0 0 0 -0 0 0 0 0 0 0 0 0 0 0 0 0 0 0 0 0 0 0 0 0 0 0 0 0 0 0 0 0 0 0 0 0 0 0 0 0 0 0 0 0 0
0 0 0 0 0 0 -0 0 0 0 0 0 0 0 0 0 0 0 0 0 0 0 0 0 0 0 0 0 0 0 0 0 0 0 0 0 0 0 0 0 0 0 0 0 0 0 0 0 0
0 0 0 0 0 -0 0 0 0 0 0 0 0 0 0 0 0 0 0 0 0 0 0 0 0 0 0 0 0 0 0 0 0 0 0 0 0 0 0 0 0 0 0 0 0 0 0 0 0
0 0 0 0 0 0 0 0 0 0 0 0 0 0 0 0 0 0 0 0 0 0 0 0 0 0 0 0 0 0 0 0 0 0 0 0 0 0 0 0 0 0 0 0 0 0 0 0 0
0 0 0 0 0 0 0 0 0 0 0 0 0 0 0 0 0 0 0 0 0 0 0 0 0 0 0 0 0 0 0 0 0 0 0 0 0 0 0 0 0 0 0 0 0 0 0 0 0
0 0 0 0 0 0 0 0 0 0 0 0 0 0 0 0 0 0 0 0 0 0 0 0 0 0 0 0 0 0 0 0 0 0 0 0 0 0 0 0 0 0 0 0 0 0 0 0 0
0 0 0 -0 0 0 0 0 0 0 0 0 0 0 1 1 1 0 0 0 0 0 0 0 0 0 0 0 0 0 0 0 0 0 0 0 0 0 0 0 0 0 0 0 0 0 0 0 0
0 0 0 -0 -0 0 0 0 0 0 0 0 0 0 1 1 1 1 1 0 0 0 0 0 0 0 0 0 0 0 0 0 0 0 0 0 0 0 0 0 0 0 0 0 0 0 0 0 0
0 0 0 -0 0 0 0 0 0 0 0 0 0 1 1 1 1 1 1 1 0 0 0 0 0 0 0 0 0 0 0 0 0 0 0 0 0 0 0 0 0 0 0 0 0 0 0 0 0
0 0 0 0 0 0 0 0 0 0 0 0 1 1 1 1 1 1 1 1 0 0 0 0 0 0 0 0 0 0 0 0 0 0 0 0 0 0 0 0 0 0 0 0 0 0 0 0 0
0 0 0 0 0 0 0 0 0 0 0 0 1 1 1 1 1 1 1 1 0 0 0 0 0 0 0 0 0 0 0 0 0 0 0 0 0 0 0 0 0 0 0 0 0 0 0 0 0
0 0 0 0 0 0 0 0 0 0 0 0 1 1 1 1 1 1 1 1 1 0 0 0 0 0 0 0 0 0 0 0 0 0 0 0 0 0 0 0 0 0 0 0 0 0 0 0 0
0 0 0 0 0 0 0 0 0 0 0 0 1 1 1 1 1 1 1 1 1 1 1 1 0 0 0 0 0 0 0 0 0 0 0 0 0 0 0 0 0 0 0 0 0 0 0 0 0
-0 0 0 0 0 0 0 0 0 0 0 0 0 1 1 1 1 1 1 1 1 1 1 1 1 0 0 0 0 0 0 0 0 0 0 0 0 0 0 0 0 0 0 0 0 0 0 0 0
-0 0 0 0 0 0 0 0 0 0 0 0 0 1 1 1 1 1 1 1 1 1 1 1 1 1 1 0 0 0 0 0 0 0 0 0 0 0 0 0 0 0 0 0 0 0 0 0 0
-0 0 0 0 0 0 0 0 0 0 0 0 0 1 1 1 1 1 1 1 1 1 1 1 1 1 1 0 0 0 0 0 0 0 0 0 0 0 0 0 0 0 0 0 0 0 0 0 0
0 0 0 0 0 0 0 0 0 0 0 0 0 1 1 1 1 1 1 1 1 1 1 1 1 1 1 0 0 0 0 0 0 0 0 0 0 0 0 0 0 0 0 0 0 0 0 0 0
0 0 0 0 0 0 0 0 0 0 0 0 0 1 1 1 1 1 1 1 1 1 1 1 1 1 1 0 0 0 0 0 0 0 0 0 0 0 0 0 0 0 0 0 0 0 0 0 0
0 0 0 0 0 0 0 0 0 0 0 0 0 0 1 1 1 1 1 1 1 1 1 1 1 1 1 0 0 0 0 0 0 0 0 0 0 0 0 0 0 0 0 0 0 0 0 0 0
0 0 0 0 0 0 0 0 0 0 0 0 0 0 1 1 1 1 1 1 1 1 1 1 1 1 1 0 0 0 0 0 0 0 0 0 0 0 0 0 0 0 0 0 0 0 0 0 0
0 0 0 0 0 0 0 0 0 0 0 0 0 0 1 1 1 1 1 1 1 1 1 1 1 0 0 0 0 0 0 0 0 0 0 0 0 0 0 0 0 0 0 0 0 0 0 0 0
0 0 0 0 0 0 0 0 0 0 0 0 0 0 1 1 1 1 1 1 1 1 1 1 1 0 0 0 0 0 0 0 0 0 0 0 0 0 0 0 0 0 0 0 0 0 0 0 0
0 0 0 0 0 0 0 0 0 0 0 0 0 0 1 1 1 1 1 1 1 1 1 1 1 1 0 0 0 0 0 0 0 0 0 0 0 0 0 0 0 0 0 0 0 0 0 0 0
0 0 0 0 0 0 0 0 0 0 0 0 0 0 0 1 1 1 1 1 1 1 1 1 1 1 1 0 0 0 0 0 0 0 0 0 0 0 0 0 0 0 0 0 0 0 0 0 0
0 -0 0 0 0 0 0 0 0 0 0 0 0 0 0 1 1 1 1 1 1 1 1 1 0 1 1 0 0 0 0 0 0 0 0 0 0 0 0 0 0 0 0 0 0 0 0 0 0
0 -0 -0 0 0 0 0 0 0 0 0 0 0 0 0 0 1 1 1 1 1 1 1 0 0 1 1 0 0 0 0 0 0 0 0 0 0 0 0 0 0 0 0 0 0 0 0 0 0
0 0 0 0 0 0 0 0 0 0 0 0 0 0 0 0 1 1 1 1 1 1 1 0 1 1 1 0 0 0 0 0 0 0 0 0 0 0 0 0 0 0 0 0 0 0 0 0 0
0 0 0 0 0 0 0 0 0 0 0 0 0 0 0 0 1 1 1 1 1 1 1 0 0 1 0 0 0 0 0 0 0 0 0 0 0 0 0 0 0 0 0 0 0 0 0 0 0
0 0 0 0 0 0 0 0 0 0 0 0 0 0 0 1 1 1 1 1 1 1 0 0 0 0 0 0 0 0 0 0 0 0 0 0 0 0 0 0 0 0 0 0 0 0 0 0 0
Wind_Speed
8 7 5 6 4 8 15 13 10 9 8 7 6 4 5 7 6 9 10 15 16 16 16 14 12 12 12 12 12 13 13 13 12 12 11 11 11 10 10 10 10 10 11 11 11 11 11 11 11
4 4 6 5 3 12 14 11 11 11 8 6 5 4 6 8 8 11 12 15 16 16 15 14 14 12 12 12 12 12 12 12 12 11 11 10 10 10 10 10 10 10 11 11 11 11 11 11 11
4 6 6 0 9 12 13 10 10 8 7 5 5 6 6 8 9 10 13 17 16 14 14 15 14 13 12 12 11 11 11 11 11 11 10 10 10 9 10 10 10 10 10 11 11 11 11 11 11
5 6 5 4 14 12 9 8 7 6 7 5 5 8 8 7 6 11 17 17 16 14 14 16 13 12 12 12 11 11 11 10 10 10 10 10 9 9 10 10 10 10 10 10 10 10 11 10 11
6 5 2 9 12 9 7 6 4 5 5 5 5 8 9 6 9 15 16 16 15 14 14 16 13 12 11 11 11 11 10 10 10 10 9 9 9 9 10 10 10 10 10 10 10 10 10 10 10
5 4 4 9 11 7 6 5 4 5 6 6 6 8 8 7 12 15 15 14 14 13 14 16 13 12 11 10 10 10 10 10 10 10 9 10 10 10 10 10 10 10 10 10 10 10 10 10 10
5 1 6 8 8 7 6 4 3 3 5 5 5 7 9 10 13 14 14 12 12 12 13 13 14 13 11 10 10 10 10 9 9 9 9 10 10 10 10 10 10 9 10 10 10 10 10 10 10
5 2 6 7 6 8 5 3 3 3 5 5 4 5 10 13 14 14 13 12 11 10 11 11 11 11 12 12 10 10 9 9 9 9 9 10 10 10 9 10 9 9 9 9 9 10 10 9 9
6 2 6 6 5 5 3 2 3 2 5 5 2 3 12 19 17 15 13 12 11 10 9 10 10 9 9 10 11 10 10 9 9 9 10 8 7 8 8 10 9 9 9 9 9 9 9 9 10
5 2 7 5 5 4 2 2 1 4 5 6 7 10 17 19 18 17 16 15 14 13 11 8 8 9 9 7 8 7 7 8 6 6 7 5 5 4 7 10 9 9 9 9 9 8 9 7 7
3 4 5 3 4 5 3 1 2 3 2 3 9 15 18 19 17 16 15 14 14 13 11 10 9 8 7 6 6 4 4 5 6 6 5 4 4 5 5 5 7 7 8 7 8 7 4 4 3
3 3 4 5 5 4 4 2 2 2 3 3 8 17 19 19 17 16 15 14 13 12 11 9 8 7 6 5 5 5 4 4 4 6 6 5 3 3 4 3 4 4 3 4 4 3 3 3 4
3 4 5 6 5 3 3 3 2 0 3 5 11 17 18 17 15 14 12 12 12 12 12 10 8 7 6 5 4 5 4 4 5 5 5 4 4 4 4 3 2 3 4 4 3 3 3 3 4
5 7 6 5 4 2 3 2 2 2 4 8 13 14 15 15 15 14 13 13 12 12 12 11 10 9 7 6 5 4 4 4 4 5 5 5 3 4 4 4 3 2 3 2 2 3 3 3 3
6 8 5 1 3 1 5 4 2 4 6 9 11 11 13 13 13 14 13 13 12 12 11 11 10 10 8 7 6 5 4 5 4 4 5 5 5 4 3 3 4 3 2 3 3 3 3 3 3
7 8 5 2 2 1 7 1 5 5 7 8 9 10 11 11 12 11 12 11 11 11 11 11 10 11 9 7 6 4 4 5 4 4 5 6 5 5 4 4 4 3 3 3 3 3 3 2 2
8 7 3 2 0 3 6 2 4 4 6 8 9 10 11 11 11 11 11 11 10 11 11 12 11 11 10 8 6 5 4 4 4 5 5 5 6 6 6 4 3 4 3 4 4 3 3 3 2
4 4 3 2 1 4 5 3 2 3 5 7 8 9 10 11 11 11 11 11 10 10 11 12 12 11 10 8 6 5 5 5 5 5 5 6 6 7 6 5 5 5 4 4 3 2 2 2 3
4 5 4 1 2 5 4 3 1 3 5 6 8 8 9 9 9 10 10 10 10 10 11 12 13 11 9 7 7 7 7 6 5 5 6 7 7 7 6 5 5 5 4 4 5 4 5 4 3
7 7 5 2 1 5 5 4 2 3 4 5 6 8 9 9 10 10 11 10 11 11 11 12 12 12 11 8 7 6 5 5 5 5 5 7 7 7 7 7 6 6 5 6 6 5 4 4 4
9 8 4 3 3 5 6 7 5 4 4 4 5 6 8 9 11 11 11 11 11 11 12 11 12 12 12 10 7 6 5 4 5 6 6 7 7 7 7 7 7 6 6 6 7 6 7 5 4
8 4 5 5 7 3 4 6 3 3 5 5 6 6 8 9 9 10 10 10 11 10 10 10 11 11 11 11 9 10 8 8 7 6 5 6 7 8 8 8 7 7 6 5 7 7 6 6 5
4 1 4 6 7 7 5 8 1 4 4 3 4 5 7 8 9 10 10 9 9 9 8 9 10 10 10 10 10 10 9 7 5 5 6 6 6 8 8 8 7 7 6 6 7 6 7 6 6
4 5 5 7 8 9 3 7 4 0 1 1 3 5 6 8 9 9 9 8 8 8 8 8 9 10 10 10 10 10 9 8 7 6 6 6 5 6 8 8 6 7 6 6 7 6 8 6 7
10 10 8 9 8 5 3 6 4 3 1 1 2 5 7 9 9 9 10 9 9 9 8 8 9 9 10 10 10 10 9 9 8 7 6 6 5 5 7 7 6 6 6 6 6 6 7 7 7
13 13 9 6 5 3 5 6 1 2 0 2 3 5 7 9 9 9 9 9 8 9 8 8 9 9 9 9 9 8 7 6 5 6 5 5 5 5 5 6 6 6 6 6 5 6 6 6 6
11 12 11 9 7 7 4 3 4 4 4 5 5 7 8 9 9 9 9 9 8 8 8 8 8 8 8 8 7 6 6 6 5 5 5 4 4 4 5 5 6 6 6 6 6 5 5 5 6
9 9 7 9 8 9 6 6 4 3 5 6 7 8 8 9 9 9 9 9 8 7 7 7 7 7 7 7 6 5 5 5 4 4 4 4 4 4 4 4 5 6 6 6 6 5 5 5 5
11 10 9 9 8 8 6 2 2 2 3 5 7 8 9 10 10 10 9 8 7 7 7 7 6 7 6 5 5 4 4 4 4 4 4 3 3 3 4 4 4 5 5 5 5 4 4 5 4
12 13 12 10 8 8 8 2 6 2 2 4 6 8 9 9 10 10 10 8 7 7 7 6 6 6 5 5 5 4 3 4 4 4 3 3 3 3 3 3 3 4 5 4 5 5 4 4 4
Wind_Direction
212 211 229 241 218 79 68 66 67 73 75 74 83 56 50 42 31 79 115 136 136 138 134 139 134 128 123 121 119 118 119 120 119 119 119 120 119 118 115 114 113 112 111 109 109 108 109 110 109
220 218 238 243 68 78 71 63 64 61 78 96 93 81 75 68 62 106 133 138 143 140 139 138 133 131 127 124 122 121 121 121 121 121 121 121 120 118 117 115 112 112 113 113 112 110 110 111 110
227 242 267 103 63 65 70 66 73 84 94 98 91 63 57 75 105 127 137 146 146 138 135 128 140 135 131 127 125 122 121 122 123 124 122 122 121 121 118 114 113 112 115 116 115 111 110 109 109
242 230 233 80 76 66 62 71 85 103 93 83 99 92 80 74 112 129 140 151 144 142 142 131 142 138 135 131 128 126 125 125 124 123 122 122 121 120 118 115 114 113 114 117 118 114 111 109 110
247 260 133 85 75 72 67 68 81 80 81 92 99 102 93 80 114 131 147 151 147 147 139 134 142 139 136 135 133 130 128 126 124 122 121 121 119 117 117 116 114 114 115 118 117 116 115 112 112
255 250 85 81 80 78 81 85 86 78 92 104 113 111 93 117 134 143 150 154 149 147 141 132 141 142 142 139 136 135 131 129 126 124 121 118 116 115 115 115 115 116 117 117 117 116 116 116 114
301 16 79 77 82 79 62 60 49 75 100 110 122 116 119 140 143 148 150 153 152 152 145 146 152 152 149 143 141 137 133 131 128 127 125 120 118 117 116 116 118 118 117 117 118 118 118 118 117
303 258 98 78 66 69 67 62 47 29 78 109 144 136 145 150 150 150 150 154 153 155 152 153 160 153 159 152 146 139 136 135 132 130 128 127 127 127 129 130 120 120 120 120 118 119 119 119 121
270 245 77 58 38 49 52 50 73 97 127 136 121 87 128 143 152 155 155 158 160 164 163 166 156 158 164 153 144 152 147 143 151 142 139 157 149 137 144 112 120 122 122 121 119 121 125 132 132
277 33 58 30 8 0 2 328 144 177 158 147 129 113 130 149 159 165 167 168 169 169 171 167 164 166 169 153 150 163 163 153 166 140 150 147 124 122 116 120 127 126 125 128 122 128 155 178 144
309 11 26 5 354 333 314 281 201 221 167 162 162 151 153 160 168 173 174 175 172 168 172 172 174 176 169 159 162 163 156 149 156 143 142 132 144 140 137 139 141 147 156 145 142 168 157 130 115
296 353 341 334 342 312 308 290 237 255 25 78 152 155 162 169 175 179 176 175 170 171 173 175 170 175 181 173 163 171 169 165 158 147 165 154 153 149 134 153 150 160 144 135 144 137 122 120 135
276 327 325 320 311 311 279 259 266 261 67 115 142 158 169 174 177 178 175 175 175 175 174 173 172 174 177 181 192 176 173 171 160 159 164 170 166 160 149 143 155 164 139 154 157 145 132 142 146
324 307 303 311 329 292 268 237 194 103 121 137 152 165 171 176 176 174 176 180 180 179 177 171 174 181 183 189 195 184 179 174 180 174 166 185 179 161 164 164 169 166 161 140 158 143 160 173 146
281 278 263 292 322 329 268 206 166 112 145 154 160 166 170 177 179 182 181 182 181 181 179 176 175 183 187 196 197 191 191 182 190 179 174 189 194 173 187 172 181 172 162 162 184 171 178 183 171
247 249 237 125 338 305 272 237 97 143 166 163 163 167 172 180 186 184 182 182 181 181 180 181 184 185 186 195 200 200 198 188 194 196 188 195 197 193 207 197 187 175 190 188 179 202 188 183 189
225 237 244 155 88 290 273 316 93 156 183 175 173 173 176 179 188 185 185 182 182 184 183 184 189 188 188 188 199 207 200 207 206 204 202 196 204 202 211 211 184 196 200 204 212 183 212 196 201
224 241 234 258 16 290 266 275 123 170 201 191 184 182 182 184 187 183 184 183 183 186 186 186 188 191 188 187 190 204 208 211 213 210 206 208 208 208 218 210 196 211 203 210 217 200 222 230 225
282 265 258 292 337 292 277 274 241 187 209 201 193 190 189 185 178 177 179 182 182 186 188 190 191 189 188 189 192 199 203 207 211 213 209 215 218 212 221 230 196 215 214 220 214 213 208 221 218
242 249 238 207 344 291 285 269 242 212 216 219 206 196 190 179 173 175 179 182 187 189 192 192 193 191 193 195 197 205 208 209 209 213 208 217 220 219 215 224 223 214 216 220 224 224 238 227 215
232 251 266 288 278 233 268 236 202 189 201 207 210 197 189 183 178 176 180 183 188 192 194 193 194 194 196 195 195 198 198 209 207 208 208 216 219 222 229 222 229 227 228 217 221 222 228 236 224
227 231 263 267 264 243 284 287 186 193 206 200 197 190 185 184 180 175 177 182 189 190 192 192 192 194 195 194 200 201 203 208 210 209 206 213 221 227 226 226 225 228 234 228 227 220 227 235 237
244 194 247 260 261 266 239 278 263 179 234 191 184 187 182 180 178 175 178 180 183 184 184 185 189 191 192 197 203 209 215 217 216 212 209 217 220 227 228 225 222 223 231 232 239 231 231 230 239
195 202 214 239 250 251 254 274 276 128 320 133 157 167 173 171 170 167 169 170 173 174 177 175 182 188 192 196 202 210 216 218 220 217 215 216 216 219 220 223 222 222 226 227 231 233 229 234 241
207 222 222 222 223 240 139 257 282 33 6 290 179 162 165 166 165 163 165 166 169 173 175 177 182 186 189 193 200 208 215 217 221 223 221 224 223 220 216 220 220 222 224 228 227 225 235 230 232
212 228 245 262 256 209 177 250 279 92 183 217 185 158 161 166 164 162 162 163 168 172 173 179 181 185 187 191 197 203 212 218 222 226 226 224 230 232 220 220 220 223 225 228 226 231 229 230 232
208 229 251 263 270 276 245 247 245 186 196 185 169 163 166 165 162 161 162 162 165 167 171 176 176 179 183 188 193 196 207 219 222 224 224 229 226 228 219 221 223 226 227 231 230 232 234 233 234
249 230 220 241 252 258 242 242 253 200 185 172 172 171 163 161 160 157 158 158 158 159 161 165 169 171 176 184 193 190 197 207 212 217 219 227 231 227 219 218 223 224 223 225 227 225 225 230 236
192 209 226 236 251 267 264 236 101 208 184 178 174 169 164 164 160 157 156 154 151 151 153 159 157 159 165 175 181 187 190 193 195 203 210 209 215 215 216 217 221 222 221 220 222 227 227 227 231
212 214 212 226 226 246 275 269 111 170 181 182 171 164 162 161 157 157 155 154 154 153 155 156 155 154 160 163 164 164 168 177 184 190 195 195 198 207 207 208 217 225 223 217 216 221 224 223 225